Location: Battersea Observatory
(44.4318°N, 76.3841°W)
Time: 20:55:40
(UTC-04:00)

Tiros 1 despin weight - Pass Details

Date: 28 January 2022
Orbit: 592 x 639 km, 48.2° (Epoch: 25 May)

Event Time Altitude Azimuth Distance (km) Brightness Sun altitude
Rises 16:55:50 0° 255° (WSW) 2,864 ? 1.3°
Reaches altitude 10° 16:58:08 10° 258° (WSW) 1,969 ? 1.0°
Maximum altitude 17:02:39 72° 343° (NNW) 655 ? 0.2°
Drops below altitude 10° 17:07:18 10° 68° (ENE) 2,020 ? -0.5°
Enters shadow 17:09:22 - 70° (ENE) 2,820 ? -0.8°
Sets 17:09:37 0° 71° (ENE) 2,922 - -0.9°
